Content
SEND FEEDBACK

Daily
Averages
Monthly
Summary
Switzerland

GENEVA, SWITZERLAND


Home > Europe > Switzerland
Elevation: 1364 feet     Latitude: 46 15N     Longitude: 006 08E

WEATHER
 
SELECT A DAY
Number of Records: 317,758;   Date Range: 7/1/96 - 12/26/14
 
SHARE

PRINT THIS DATA

[ ← Previous Day ]
WEATHER ALMANAC - FEBRUARY 16, 2013
[ Next Day → ]
[ °C ]   °F
Weather ElementAverageHighLow
Temperature33 °F41 °F (2:50 pm)28 °F (1:00 am)
Dewpoint29.9 °F32 °F (6:50 am)26.6 °F (8:50 pm)
Humidity87.8 %100 % (12:50 am)61 % (5:00 pm)
Barometer30.20 in30.29 in (9:00 am)30.15 in (3:50 pm)
Wind Speed1.8 mph6.9 mph (5:00 pm)
Weather ElementAverage
Visibility5 mi
Wind DirectionE (87.6 °)

Weather ElementTotal
Precipitation---
Heating Degree Days30.5 (Base 65)
Averaged from 67 records on February 16, 2013
WEATHER CONDITIONS BREAKOUT
WIND DIRECTION BREAKOUT
WEATHER BY HOUR - FEBRUARY 16, 2013
[ °C ]   °F
Local TimeTemperatureDewpointHumidityBarometerVisibilityWind DirectionWind SpeedGust SpeedPrecipitationEventsConditions
12:20 AM30.2 °F28.4 °F93 %30.18 in5.6 miCalmFogFog
12:50 AM28.4 °F28.4 °F100 %30.18 in6.2 miNW (310°)1.2 mphFogShallow Fog
12:52 AM28.4 °F28.4 °F100 %30.18 in6.2 miNW (310°)1.2 mphFogShallow Fog
1:00 AM28.0 °F28.0 °F97 %30.27 in6.0 miNorth (350°)1.2 mphFogLight Fog
1:20 AM28.4 °F28.4 °F100 %30.18 in5.6 miCalmFogShallow Fog
1:50 AM28.4 °F28.4 °F100 %30.18 in3.1 miVariable1.2 mphMostly Cloudy
2:00 AM30.0 °F28.0 °F91 %30.27 inWest (280°)1.2 mph
2:50 AM28.4 °F28.4 °F100 %30.18 in6.2 miCalmFogMostly Cloudy
3:00 AM28.0 °F27.0 °F94 %30.28 inCalm
3:20 AM28.4 °F28.4 °F100 %30.18 inCalmFogLight Freezing Fog
3:50 AM30.2 °F30.2 °F100 %30.18 in2.5 miCalmFogMostly Cloudy
4:20 AM30.2 °F30.2 °F100 %30.18 in3.1 miWNW (290°)1.2 mphFogMostly Cloudy
4:50 AM30.2 °F30.2 °F100 %30.18 in3.1 miWNW (290°)2.3 mphFogMostly Cloudy
5:00 AM30.0 °F29.0 °F97 %30.26 inNW (320°)3.5 mph
5:20 AM30.2 °F30.2 °F100 %30.18 in0.9 miVariable1.2 mphMostly Cloudy
5:50 AM30.2 °F30.2 °F100 %30.18 in1.4 miVariable2.3 mphMostly Cloudy
6:00 AM32.0 °F30.0 °F90 %30.26 inNW (310°)2.3 mph
6:20 AM32.0 °F30.2 °F93 %30.18 in0.9 miVariable1.2 mphMostly Cloudy
6:50 AM32.0 °F32.0 °F100 %30.18 in0.4 miWNW (300°)3.5 mphFogLight Freezing Fog
7:00 AM31.0 °F30.0 °F95 %30.27 in1.0 miNW (310°)4.6 mphMist
7:20 AM30.2 °F30.2 °F100 %30.18 inVariable3.5 mphFogLight Freezing Fog
7:50 AM30.2 °F30.2 °F100 %30.18 in1.1 miWNW (290°)2.3 mphMostly Cloudy
8:00 AM31.0 °F29.0 °F88 %30.27 inWest (260°)2.3 mph
8:20 AM30.2 °F30.2 °F100 %30.21 inWSW (250°)1.2 mphMostly Cloudy
8:50 AM30.2 °F30.2 °F100 %30.21 inVariable1.2 mphMostly Cloudy
9:00 AM31.0 °F29.0 °F88 %30.29 inWSW (240°)1.2 mph
9:20 AM32.0 °F32.0 °F100 %30.21 inCalmMostly Cloudy
9:50 AM32.0 °F32.0 °F100 %30.21 in3.1 miCalmMostly Cloudy
10:20 AM33.8 °F32.0 °F93 %30.21 inVariable1.2 mphMostly Cloudy
10:50 AM33.8 °F32.0 °F93 %30.21 in2.8 miVariable2.3 mphMostly Cloudy
11:00 AM34.0 °F31.0 °F86 %30.29 inNorth (10°)2.3 mph
11:20 AM33.8 °F32.0 °F93 %30.21 in3.1 miVariable2.3 mphMostly Cloudy
11:50 AM35.6 °F32.0 °F87 %30.21 in4.3 miVariable2.3 mphMostly Cloudy
12:00 PM35.0 °F31.0 °F78 %30.28 inNNE (30°)2.3 mph
12:20 PM35.6 °F32.0 °F87 %30.21 in5.0 miVariable1.2 mphMostly Cloudy
12:50 PM37.4 °F32.0 °F81 %30.21 in6.2 miVariable1.2 mphMostly Cloudy
1:00 PM36.0 °F31.0 °F76 %30.26 in6.0 miNorth (10°)1.2 mphMist
1:20 PM37.4 °F32.0 °F81 %30.18 in6.2 miCalmMostly Cloudy
1:50 PM39.2 °F32.0 °F75 %30.18 in6.2 miVariable2.3 mphMostly Cloudy
2:00 PM37.0 °F30.0 °F68 %30.24 inNorth (10°)2.3 mph
2:20 PM39.2 °F32.0 °F75 %30.18 in6.2 miVariable1.2 mphMostly Cloudy
2:50 PM41.0 °F32.0 °F70 %30.18 in6.2 miVariable2.3 mphMostly Cloudy
3:00 PM38.0 °F30.0 °F62 %30.22 inNorth2.3 mph
3:20 PM39.2 °F32.0 °F75 %30.18 in6.2 miVariable2.3 mphScattered Clouds
3:50 PM39.2 °F30.2 °F70 %30.15 in6.2 miNNE (30°)5.8 mphScattered Clouds
4:20 PM39.2 °F30.2 °F70 %30.15 in6.2 miNorth (10°)4.6 mphScattered Clouds
4:50 PM39.2 °F32.0 °F75 %30.15 in6.2 miNE (40°)4.6 mphScattered Clouds
5:00 PM39.0 °F30.0 °F61 %30.22 inENE (60°)6.9 mph
5:20 PM39.2 °F32.0 °F75 %30.15 in6.2 miENE (70°)3.5 mphPartly Cloudy
5:50 PM37.4 °F30.2 °F75 %30.15 in6.2 miVariable3.5 mphPartly Cloudy
6:00 PM36.0 °F29.0 °F69 %30.22 inNNE (30°)3.5 mph
6:20 PM35.6 °F30.2 °F81 %30.15 in6.2 miVariable2.3 mphPartly Cloudy
6:50 PM32.0 °F28.4 °F87 %30.15 in6.2 miVariable2.3 mphPartly Cloudy
7:00 PM33.0 °F29.0 °F81 %30.23 in8.0 miNorth (350°)2.3 mphMist
7:20 PM32.0 °F28.4 °F87 %30.15 in6.2 miVariable1.2 mphPartly Cloudy
7:50 PM32.0 °F28.4 °F87 %30.15 in6.2 miWNW (300°)1.2 mphPartly Cloudy
8:00 PM32.0 °F29.0 °F82 %30.23 inWNW (300°)3.5 mph
8:20 PM30.2 °F28.4 °F93 %30.15 in6.2 miVariable1.2 mphPartly Cloudy
8:50 PM30.2 °F26.6 °F86 %30.15 in6.2 miCalmMostly Cloudy
9:00 PM30.0 °F27.0 °F83 %30.24 inWest (270°)1.2 mph
9:20 PM30.2 °F28.4 °F93 %30.15 in6.2 miCalmMostly Cloudy
9:50 PM32.0 °F28.4 °F87 %30.15 in6.2 miCalmMostly Cloudy
10:20 PM32.0 °F28.4 °F87 %30.15 in6.2 miCalmMostly Cloudy
10:50 PM32.0 °F30.2 °F93 %30.15 in6.2 miCalmMostly Cloudy
11:00 PM33.0 °F29.0 °F79 %30.22 inSSE (150°)1.2 mph
11:20 PM33.8 °F30.2 °F87 %30.15 in6.2 miCalmMostly Cloudy
11:50 PM33.8 °F30.2 °F87 %30.15 in6.2 miCalmMostly Cloudy
Hourly data recorded from LSGG, located miles away from Geneva, Switzerland







STORIES FROM OUR PARTNERS